When you browse on this site, cookies collect data to enhance your experience and personalize the content and advertising you see.
Visit our Privacy Policy to learn more. By continuing to use the site, you agree to this use of cookies and data.
  • In Hungary
  • List of Countries
  • For 7 days
  • Water Temperature
  • Weather Map
  • News
  • Weather Widgets
  • user-avatar
    Login

    Hourly Weather Novaya Adygeya

    Today, 23 October, Wednesday

    Time Temperature Precipitation Wind Pressure Humidity
    00:00 +14°C° 0 mm 2 mps 764 mmHg 59%
    01:00 +14°C° 0 mm 2 mps 764 mmHg 61%
    02:00 +14°C° 0 mm 2 mps 764 mmHg 63%
    03:00 +13°C° 0 mm 2 mps 764 mmHg 67%
    04:00 +13°C° 0 mm 1 mps 764 mmHg 68%
    05:00 +12°C° 0 mm 1 mps 764 mmHg 70%
    06:00 +12°C° 0 mm 1 mps 765 mmHg 71%
    07:00 +13°C° 0 mm 1 mps 765 mmHg 67%
    08:00 +14°C° 0 mm 1 mps 765 mmHg 63%
    09:00 +15°C° 0 mm 1 mps 765 mmHg 59%
    10:00 +17°C° 0 mm 2 mps 765 mmHg 53%
    11:00 +19°C° 0 mm 2 mps 765 mmHg 47%
    12:00 +20°C° 0 mm 2 mps 765 mmHg 40%
    13:00 +21°C° 0 mm 2 mps 764 mmHg 38%
    14:00 +23°C° 0 mm 2 mps 764 mmHg 35%
    15:00 +23°C° 0 mm 2 mps 763 mmHg 33%
    16:00 +21°C° 0 mm 2 mps 764 mmHg 36%
    17:00 +20°C° 0 mm 2 mps 764 mmHg 40%
    18:00 +18°C° 0 mm 2 mps 764 mmHg 44%
    19:00 +18°C° 0 mm 2 mps 764 mmHg 46%
    20:00 +17°C° 0 mm 2 mps 764 mmHg 47%
    21:00 +16°C° 0 mm 2 mps 764 mmHg 49%
    22:00 +16°C° 0 mm 2 mps 764 mmHg 51%
    23:00 +16°C° 0 mm 2 mps 763 mmHg 53%

    Tomorrow, 24 October, Thursday

    Time Temperature Precipitation Wind Pressure Humidity
    00:00 +15°C° 0 mm 1 mps 763 mmHg 55%
    01:00 +15°C° 0 mm 1 mps 763 mmHg 56%
    02:00 +14°C° 0 mm 1 mps 763 mmHg 58%
    03:00 +14°C° 0 mm 1 mps 763 mmHg 60%
    04:00 +14°C° 0 mm 1 mps 763 mmHg 62%
    05:00 +14°C° 0 mm 1 mps 763 mmHg 63%
    06:00 +13°C° 0 mm 1 mps 763 mmHg 65%
    07:00 +14°C° 0 mm 1 mps 764 mmHg 62%
    08:00 +15°C° 0 mm 1 mps 764 mmHg 59%
    09:00 +16°C° 0 mm 1 mps 764 mmHg 56%
    10:00 +19°C° 0 mm 1 mps 764 mmHg 51%
    11:00 +20°C° 0 mm 1 mps 763 mmHg 45%
    12:00 +22°C° 0 mm 1 mps 763 mmHg 40%
    13:00 +23°C° 0 mm 1 mps 763 mmHg 38%
    14:00 +23°C° 0 mm 1 mps 763 mmHg 36%
    15:00 +23°C° 0 mm 1 mps 762 mmHg 34%
    16:00 +22°C° 0 mm 1 mps 762 mmHg 38%
    17:00 +21°C° 0 mm 1 mps 762 mmHg 41%
    18:00 +20°C° 0 mm 1 mps 762 mmHg 44%
    19:00 +19°C° 0 mm 1 mps 762 mmHg 46%
    20:00 +18°C° 0 mm 1 mps 762 mmHg 47%
    21:00 +18°C° 0 mm 1 mps 762 mmHg 49%
    22:00 +16°C° 0 mm 1 mps 762 mmHg 50%
    23:00 +16°C° 0 mm 1 mps 762 mmHg 52%

    Day after tomorrow, 25 October, Friday

    Time Temperature Precipitation Wind Pressure Humidity
    00:00 +15°C° 0 mm 1 mps 762 mmHg 53%
    01:00 +15°C° 0 mm 1 mps 762 mmHg 55%
    02:00 +14°C° 0 mm 1 mps 762 mmHg 56%
    03:00 +14°C° 0 mm 1 mps 762 mmHg 57%
    04:00 +13°C° 0 mm 0 mps 762 mmHg 58%
    05:00 +12°C° 0 mm 0 mps 762 mmHg 59%
    06:00 +12°C° 0 mm 0 mps 761 mmHg 60%
    07:00 +13°C° 0 mm 0 mps 762 mmHg 57%
    08:00 +14°C° 0 mm 0 mps 762 mmHg 54%
    09:00 +16°C° 0 mm 1 mps 762 mmHg 50%
    10:00 +19°C° 0 mm 1 mps 762 mmHg 46%
    11:00 +21°C° 0 mm 1 mps 761 mmHg 42%
    12:00 +22°C° 0 mm 1 mps 761 mmHg 37%
    13:00 +23°C° 0 mm 1 mps 761 mmHg 36%
    14:00 +23°C° 0 mm 1 mps 761 mmHg 35%
    15:00 +23°C° 0 mm 1 mps 761 mmHg 34%
    16:00 +22°C° 0 mm 1 mps 761 mmHg 38%
    17:00 +21°C° 0 mm 1 mps 761 mmHg 42%
    18:00 +19°C° 0 mm 1 mps 761 mmHg 45%
    19:00 +19°C° 0 mm 1 mps 761 mmHg 48%
    20:00 +18°C° 0 mm 1 mps 761 mmHg 50%
    21:00 +16°C° 0 mm 1 mps 761 mmHg 53%
    22:00 +16°C° 0 mm 1 mps 761 mmHg 55%
    23:00 +15°C° 0 mm 1 mps 761 mmHg 58%

    26 October, Saturday

    Time Temperature Precipitation Wind Pressure Humidity
    00:00 +14°C° 0 mm 1 mps 761 mmHg 60%
    01:00 +14°C° 0 mm 1 mps 761 mmHg 62%
    02:00 +14°C° 0 mm 1 mps 761 mmHg 64%
    03:00 +13°C° 0 mm 1 mps 761 mmHg 66%
    04:00 +13°C° 0 mm 1 mps 761 mmHg 68%
    05:00 +13°C° 0 mm 1 mps 762 mmHg 69%
    06:00 +12°C° 0 mm 1 mps 762 mmHg 71%
    07:00 +13°C° 0 mm 1 mps 762 mmHg 67%
    08:00 +14°C° 0 mm 1 mps 762 mmHg 63%
    09:00 +15°C° 0 mm 1 mps 762 mmHg 60%
    10:00 +18°C° 0 mm 1 mps 762 mmHg 54%
    11:00 +20°C° 0 mm 1 mps 762 mmHg 49%
    12:00 +21°C° 0 mm 1 mps 762 mmHg 44%
    13:00 +22°C° 0 mm 1 mps 762 mmHg 42%
    14:00 +22°C° 0 mm 1 mps 762 mmHg 41%
    15:00 +22°C° 0 mm 1 mps 761 mmHg 39%
    16:00 +21°C° 0 mm 1 mps 762 mmHg 43%
    17:00 +20°C° 0 mm 1 mps 762 mmHg 47%
    18:00 +19°C° 0 mm 1 mps 762 mmHg 51%
    19:00 +18°C° 0 mm 1 mps 762 mmHg 55%
    20:00 +17°C° 0 mm 2 mps 762 mmHg 59%
    21:00 +16°C° 0 mm 2 mps 762 mmHg 63%
    22:00 +16°C° 0 mm 2 mps 762 mmHg 67%
    23:00 +15°C° 0 mm 2 mps 762 mmHg 72%

    27 October, Sunday

    Time Temperature Precipitation Wind Pressure Humidity
    00:00 +14°C° 0 mm 2 mps 762 mmHg 76%
    01:00 +14°C° 0 mm 1 mps 762 mmHg 79%
    02:00 +14°C° 0 mm 1 mps 762 mmHg 82%
    03:00 +13°C° 0 mm 1 mps 762 mmHg 85%
    04:00 +13°C° 0 mm 1 mps 763 mmHg 87%
    05:00 +12°C° 0 mm 1 mps 763 mmHg 88%
    06:00 +12°C° 0 mm 1 mps 763 mmHg 89%
    07:00 +13°C° 0 mm 1 mps 763 mmHg 85%
    08:00 +14°C° 0 mm 1 mps 763 mmHg 81%
    09:00 +15°C° 0 mm 1 mps 763 mmHg 77%
    10:00 +16°C° 0 mm 1 mps 762 mmHg 70%
    11:00 +19°C° 0 mm 1 mps 762 mmHg 62%
    12:00 +21°C° 0 mm 1 mps 762 mmHg 54%
    13:00 +21°C° 0 mm 1 mps 762 mmHg 51%
    14:00 +22°C° 0 mm 1 mps 761 mmHg 49%
    15:00 +22°C° 0 mm 1 mps 761 mmHg 46%
    16:00 +21°C° 0 mm 1 mps 761 mmHg 50%
    17:00 +20°C° 0 mm 1 mps 761 mmHg 54%
    18:00 +16°C° 0 mm 0 mps 760 mmHg 58%
    19:00 +16°C° 0 mm 0 mps 760 mmHg 60%
    20:00 +16°C° 0 mm 0 mps 760 mmHg 61%
    21:00 +15°C° 0 mm 0 mps 760 mmHg 63%
    22:00 +16°C° 0 mm 1 mps 760 mmHg 66%
    23:00 +15°C° 0 mm 1 mps 760 mmHg 69%

    28 October, Monday

    Time Temperature Precipitation Wind Pressure Humidity
    00:00 +15°C° 0 mm 1 mps 760 mmHg 71%
    01:00 +14°C° 0 mm 1 mps 760 mmHg 73%
    02:00 +14°C° 0 mm 1 mps 759 mmHg 75%
    03:00 +14°C° 0 mm 1 mps 759 mmHg 78%
    04:00 +13°C° 0 mm 1 mps 759 mmHg 79%
    05:00 +13°C° 0 mm 1 mps 759 mmHg 80%
    06:00 +13°C° 0 mm 1 mps 759 mmHg 81%
    07:00 +14°C° 0 mm 1 mps 759 mmHg 76%
    08:00 +15°C° 0 mm 1 mps 759 mmHg 71%
    09:00 +16°C° 0 mm 1 mps 759 mmHg 66%
    10:00 +19°C° 0 mm 1 mps 759 mmHg 61%
    11:00 +20°C° 0 mm 1 mps 759 mmHg 55%
    12:00 +22°C° 0 mm 1 mps 759 mmHg 50%
    13:00 +22°C° 0 mm 1 mps 759 mmHg 48%
    14:00 +22°C° 0 mm 1 mps 758 mmHg 46%
    15:00 +23°C° 0 mm 1 mps 758 mmHg 45%
    16:00 +22°C° 0 mm 1 mps 758 mmHg 49%
    17:00 +20°C° 0 mm 1 mps 758 mmHg 53%
    18:00 +17°C° 0 mm 0 mps 758 mmHg 58%
    19:00 +18°C° 0 mm 1 mps 758 mmHg 62%
    20:00 +18°C° 0 mm 1 mps 758 mmHg 66%
    21:00 +16°C° 0 mm 2 mps 759 mmHg 70%
    22:00 +15°C° 0 mm 1 mps 759 mmHg 72%
    23:00 +15°C° 0 mm 1 mps 759 mmHg 75%

    29 October, Tuesday

    Time Temperature Precipitation Wind Pressure Humidity
    00:00 +14°C° 0 mm 1 mps 759 mmHg 78%
    01:00 +14°C° 0 mm 1 mps 759 mmHg 79%
    02:00 +14°C° 0 mm 1 mps 759 mmHg 81%
    03:00 +13°C° 0 mm 1 mps 759 mmHg 83%
    04:00 +13°C° 0 mm 1 mps 759 mmHg 84%
    05:00 +13°C° 0 mm 2 mps 759 mmHg 85%
    06:00 +13°C° 0 mm 2 mps 759 mmHg 87%
    07:00 +14°C° 0 mm 2 mps 759 mmHg 82%
    08:00 +16°C° 0 mm 2 mps 759 mmHg 77%
    09:00 +17°C° 0 mm 3 mps 759 mmHg 73%
    10:00 +18°C° 0 mm 3 mps 759 mmHg 66%
    11:00 +20°C° 0 mm 4 mps 759 mmHg 59%
    12:00 +21°C° 0 mm 4 mps 759 mmHg 52%
    13:00 +21°C° 0 mm 5 mps 759 mmHg 51%
    14:00 +22°C° 0 mm 5 mps 759 mmHg 50%
    15:00 +22°C° 0 mm 5 mps 758 mmHg 50%
    16:00 +20°C° 0 mm 5 mps 758 mmHg 57%
    17:00 +19°C° 0 mm 4 mps 758 mmHg 65%
    18:00 +17°C° 0 mm 3 mps 758 mmHg 73%
    19:00 +16°C° 0 mm 3 mps 759 mmHg 77%
    20:00 +16°C° 0 mm 2 mps 759 mmHg 81%
    21:00 +15°C° 0 mm 2 mps 759 mmHg 85%
    22:00 +15°C° 0 mm 2 mps 759 mmHg 86%
    23:00 +14°C° 0 mm 2 mps 759 mmHg 87%
    Show more